Regional Weather Roundup
Issued by NWS

Home | Current Version | Previous Version | Text Only | Print | Product List | Glossary On
Versions: 1 2 3 4 5 6 7 8 9 10 11 12 13 14 15 16 17 18 19 20 21 22 23 24 25 26 27 28 29 30 31 32 33 34 35 36 37 38 39 40 41 42 43 44 45 46 47 48 49 50
000
ASUS44 KOUN 042010
RWROK

WEATHER ROUNDUP FOR OKLAHOMA
NATIONAL WEATHER SERVICE NORMAN OK
300 PM CDT SAT JUL 04 2015

NOTE: "FAIR" INDICATES FEW OR NO CLOUDS BELOW 12,000 FEET WITH NO
      SIGNIFICANT WEATHER AND/OR OBSTRUCTIONS TO VISIBILITY.

OKZ001>007-009>012-014-015-017-042100-
NORTHWEST OKLAHOMA AND THE PANHANDLE

CITY           SKY/WX    TMP DP  RH WIND       PRES   REMARKS
GAGE           MOSUNNY   89  69  51 S13G25    29.96F HX  93
GUYMON         SUNNY     91  59  33 S16G30    29.95F HX  90
ENID/WOODRING  PTSUNNY   95  66  38 SE12      29.93F HX  98
$$

OKZ016-021>023-033>039-044-045-042100-
SOUTHWEST OKLAHOMA

CITY           SKY/WX    TMP DP  RH WIND       PRES   REMARKS
LAWTON/REGL    MOSUNNY   95  64  35 S8        29.92F HX  97
LAWTON/FT SILL PTSUNNY   94  70  45 SW9       29.91F HX 100
FREDERICK      SUNNY     94  67  41 S7        29.91F HX  97
CLINTON        MOSUNNY   92  66  42 SE9       29.98F HX  94
HOBART         MOSUNNY   94  67  41 S12       29.94F HX  97
ALTUS AFB      MOSUNNY   92  67  42 S9G17     29.92F HX  95
$$

OKZ018>020-024>031-042100-
CENTRAL OKLAHOMA

CITY           SKY/WX    TMP DP  RH WIND       PRES   REMARKS
OKLAHOMA CITY  MOSUNNY   88  73  61 SE12      29.95F HX  95
OKC/WILEY POST SUNNY     89  71  55 SE9       29.95F HX  95
OKC/TINKER AFB MOSUNNY   87  72  62 SE9       29.95F HX  93
STILLWATER     SUNNY     91  68  46 E7        29.94F HX  95
GUTHRIE        SUNNY     88  70  55 SE8       29.95F HX  93
$$

OKZ008-013-054>072-042100-
NORTHEAST OKLAHOMA

CITY           SKY/WX    TMP DP  RH WIND       PRES   REMARKS
TULSA          MOSUNNY   90  68  48 CALM      29.94F HX  94
TULSA/JONES    MOSUNNY   89  67  47 E5        29.93F HX  92
PONCA CITY     SUNNY     89  65  44 SE8       29.94F HX  91
BARTLESVILLE   MOSUNNY   85  67  54 CALM      29.95F
MUSKOGEE       MOSUNNY   87  68  52 VRB3      29.95F HX  90
$$

OKZ032-040>043-046>053-073>077-042100-
SOUTH CENTRAL/SOUTHEAST OKLAHOMA

CITY           SKY/WX    TMP DP  RH WIND       PRES   REMARKS
ARDMORE/DWNTWN MOSUNNY   90  68  48 SW5       29.93F HX  93
MCALESTER      CLOUDY    89  74  60 N6        29.94F HX  98
$$



USA.gov is the U.S. government's official web portal to all federal, state and local government web resources and services.